Location: Olsztyn
(53.7767°N, 20.4765°E)
Time: 17:37:45
(UTC+02:00)

A-11 Canister half - Pass Details

Date: 27 January 2022
Orbit: 1513 x 1686 km, 47.2° (Epoch: 24 May)

Event Time Altitude Azimuth Distance (km) Brightness Sun altitude
Rises 17:31:26 0° 245° (WSW) 4,750 13.5 -11.9°
Reaches altitude 10° 17:34:37 10° 242° (WSW) 3,745 12.4 -12.4°
Maximum altitude 17:43:41 55° 168° (SSE) 1,787 9.3 -13.7°
Enters shadow 17:50:56 17° 97° (E) 3,175 10.1 -14.7°
